Regional Weather Roundup
Issued by NWS

Home | Current Version | Previous Version | Graphics & Text | Print | Product List | Glossary On
Versions: 1 2 3 4 5 6 7 8 9 10 11 12 13 14 15 16 17 18 19 20 21 22 23 24 25 26 27 28 29 30 31 32 33 34 35 36 37 38 39 40 41 42 43 44 45 46 47 48 49 50
000
ASUS45 KCYS 251710
RWRWY

WYOMING REGIONAL WEATHER ROUNDUP
NATIONAL WEATHER SERVICE CHEYENNE WY
1100 AM MDT MON JUL 25 2016

NOTE:  "FAIR" INDICATES FEW OR NO CLOUDS BELOW 12,000 FEET
WITH NO SIGNIFICANT WEATHER AND/OR OBSTRUCTIONS TO VISIBILITY.

WYZ001-251800-
YELLOWSTONE NATIONAL PARK

CITY           SKY/WX    TMP DP  RH WIND       PRES   REMARKS
LK YELLOWSTONE   N/A     62  35  36 VRB3      30.40F
W YELLOWSTONE  NOT AVBL

$$
WYZ002>013-054>058-071-098>099-251800-
NORTHERN WYOMING

CITY           SKY/WX    TMP DP  RH WIND       PRES   REMARKS
JACKSON        SUNNY     68  36  30 CALM      30.30F
CODY           FAIR      82  39  21 N8        30.14F
GREYBULL       FAIR      82  37  20 CALM      30.06F
WORLAND        FAIR      82  39  21 CALM      30.08F
SHERIDAN       FAIR      88  40  18 E5        30.06F
BUFFALO        FAIR      89  38  16 SE8       30.13F
GILLETTE       FAIR      86  50  28 SE8G17    30.10F
HULETT         FAIR      88  50  27 W10       30.10F
NEWCASTLE      FAIR      81  50  34 S13G22    30.13F

$$
WYZ014>020-022>026-101>103-251800-
CENTRAL WYOMING

CITY           SKY/WX    TMP DP  RH WIND       PRES   REMARKS
BIG PINEY      FAIR      76  27  16 VRB3      30.33F
PINEDALE       FAIR      77  23  13 NW5       30.34F
DUBOIS         FAIR      77  19  11 W20G26    30.30F
LANDER         FAIR      81  33  17 VRB5      30.18F
RIVERTON         N/A     78  42  27 SE3       30.19F
CASPER         FAIR      80  47  31 MISG      30.17F
DOUGLAS          N/A    N/A N/A N/A MISG      30.15F

$$
WYZ021-027>030-104>119-251800-
SOUTHERN WYOMING

CITY           SKY/WX    TMP DP  RH WIND       PRES   REMARKS
EVANSTON       FAIR      79  25  13 VRB3      30.31F
KEMMERER         N/A     77  25  14 E6        30.35R
FORT BRIDGER   FAIR      80  25  13 E8        30.34F
ROCK SPRINGS   FAIR      80  23  12 VRB3      30.30F
DIXON          FAIR      78  36  22 W3        30.32S
RAWLINS        FAIR      82  23  11 W9        30.30F
SARATOGA       FAIR      79  36  21 NW9       30.33S
LARAMIE        FAIR      78  39  24 VRB3      30.31F
CHEYENNE       FAIR      75  57  53 SE10      30.25S
TORRINGTON     FAIR      80  57  45 SE15      30.12F
PINE BLUFFS    FAIR      73  57  56 S13       30.22S

$$



USA.gov is the U.S. government's official web portal to all federal, state and local government web resources and services.